[[{"header":{"parameterUnit":"m.s-1","parameterCategory":1,"la1":30.2991,"la2":30.254,"lo1":-89.0895,"lo2":-89.0444,"dy":0.0017,"dx":0.0017,"nx":28,"ny":28,"refTime":"2025-06-08T03:00:00:Z","depth":0,"parameterNumber":2,"parameterNumberName":"U-component_of_WINDS"},"data":[0,0,0,0,0,0,0,0,0,0,0,0,0,0,0,0,0,0,0,0,0,0,0,0,0,0,0,0,0,0,0,0,0,0,0,0,0,0,0,0,0,0,0,0,0,0,0,0,0,0,0,0,0,0,0,0,0,0,1.6488,1.6489,0,1.6573,1.6574,1.6575,1.6633,1.6633,1.6633,1.6634,1.6722,1.6724,1.6726,0,0,0,0,0,0,0,0,0,0,0,0,0,1.6381,1.6383,1.6488,1.6489,1.649,1.6573,1.6574,1.6575,1.6633,1.6633,1.6634,1.6634,1.6721,1.6724,1.6726,0,0,0,0,0,0,0,0,0,0,0,0,0,1.6443,1.6383,1.6488,1.6529,1.6533,1.6572,1.6574,1.6575,1.6632,1.6633,1.6634,1.6634,1.6721,1.6724,1.6726,1.6732,0,0,1.6735,1.6737,0,0,0,0,0,0,0,0,1.6439,1.6447,1.6522,1.6526,1.6531,1.6593,1.6569,1.6628,1.6632,1.6595,1.6634,1.6635,1.6679,1.6685,1.67,1.6736,1.674,1.6736,1.6737,1.6739,1.674,0,0,0,0,0,0,0,1.6435,1.6443,1.6522,1.6523,1.6529,1.6545,1.6554,1.658,1.6632,1.6598,1.6603,1.6612,1.6681,1.6697,1.6702,1.6741,1.6736,1.6738,1.674,1.6741,1.6791,1.679,0,0,0,0,0,0,1.6424,1.6439,1.6519,1.6524,1.6486,1.6546,1.6557,1.6572,1.6632,1.6642,1.6611,1.6614,1.6691,1.6699,1.6705,1.6718,1.6739,1.6741,1.6743,1.6791,1.6791,1.679,0,0,0,0,0,0,1.6421,1.643,1.6516,1.6483,1.6495,1.6547,1.6565,1.6574,1.6589,1.6642,1.6652,1.6617,1.6692,1.6701,1.6726,1.6722,1.6743,1.6745,1.6792,1.6791,1.6791,1.6741,0,0,0,0,0,0,1.6418,1.6429,1.643,1.6483,1.6497,1.6533,1.6564,1.6575,1.6594,1.6598,1.665,1.6659,1.6693,1.6721,1.6729,1.6726,1.6748,1.6792,1.6792,1.6791,1.6743,1.6739,1.6735,0,0,0,0,0,1.6414,1.6412,1.643,1.6439,1.6499,1.6532,1.654,1.6579,1.6593,1.6596,1.6631,1.6657,1.6721,1.6723,1.6732,1.673,1.6793,1.6792,1.6791,1.6745,1.674,1.6735,0,0,0,0,0,0,1.6357,1.642,1.644,1.6455,1.6488,1.6542,1.6546,1.6572,1.6602,1.6605,1.6653,1.6665,1.6684,1.671,1.6711,1.6741,1.6761,1.6761,1.6723,1.6718,1.6714,1.6707,1.675,0,0,0,0,0,1.6347,1.6367,1.6421,1.643,1.6445,1.6493,1.6509,1.6537,1.6573,1.6587,1.6623,1.6658,1.6687,1.6704,1.6733,1.6748,1.6762,1.6752,1.6748,1.6744,1.6744,1.6757,1.6754,1.6787,1.6787,1.6787,0,0,1.6324,1.6361,1.6371,1.6419,1.6448,1.647,1.6504,1.6525,1.6542,1.659,1.6616,1.6644,1.6687,1.6707,1.6718,1.6729,1.6739,1.6743,1.674,1.6741,1.6756,1.6753,1.675,1.6786,1.6787,1.6787,0,0,1.6295,1.6325,1.6336,1.6365,1.6409,1.6441,1.6444,1.6495,1.6516,1.6542,1.658,1.6603,1.6649,1.6679,1.67,1.6688,1.6715,1.6696,1.6674,1.6686,1.6684,1.6682,1.6678,1.6677,1.6696,1.6696,1.6696,0,1.6262,1.6295,1.6339,1.6358,1.638,1.6426,1.6439,1.6465,1.6516,1.653,1.6543,1.6605,1.6637,1.6666,1.6664,1.6679,1.6686,1.6689,1.668,1.6679,1.6678,1.6675,1.6674,1.6694,1.6694,1.6694,1.6694,0,1.6254,1.6277,1.6281,1.633,1.6352,1.6368,1.6416,1.6433,1.6461,1.6493,1.6521,1.6562,1.6601,1.661,1.6636,1.6645,1.6651,1.6671,1.6691,1.6671,1.667,1.6669,1.669,1.6691,1.6692,1.6692,0,0,1.6187,1.6263,1.6263,1.6287,1.6341,1.6361,1.6381,1.642,1.6435,1.647,1.6489,1.6531,1.6551,1.6575,1.6606,1.6617,1.6607,1.6637,1.6638,1.663,1.6621,1.6605,1.6603,1.6626,1.6626,1.6626,1.6618,0,1.6166,1.6203,1.6245,1.6268,1.6292,1.6338,1.6357,1.6393,1.6424,1.645,1.6486,1.6515,1.6539,1.6554,1.6567,1.6605,1.6606,1.6607,1.6646,1.6646,1.6632,1.6602,1.6584,1.6574,1.6618,1.6617,1.6617,0,1.6145,1.6179,1.6204,1.626,1.6271,1.6286,1.6327,1.6351,1.6395,1.6418,1.6447,1.6481,1.6507,1.6526,1.6565,1.6564,1.6584,1.6605,1.6606,1.661,1.663,1.6606,1.6572,1.657,1.6617,1.6617,1.6617,0,1.6094,1.6146,1.6169,1.6189,1.6253,1.6264,1.6291,1.6336,1.6358,1.6395,1.641,1.6449,1.647,1.6501,1.6546,1.6555,1.6581,1.6603,1.6601,1.66,1.6603,1.6602,1.6571,1.6616,1.6616,1.6616,1.6616,0,1.6066,1.608,1.6148,1.6162,1.6181,1.623,1.6248,1.628,1.632,1.6343,1.6387,1.6407,1.6466,1.6494,1.653,1.6558,1.6567,1.6587,1.6596,1.6583,1.658,1.6595,1.6597,1.6616,1.6616,1.6616,1.6616,0,1.6011,1.6057,1.6085,1.6146,1.6162,1.6173,1.6225,1.6242,1.6278,1.6307,1.6317,1.6373,1.641,1.6458,1.6509,1.6534,1.6557,1.6572,1.6542,1.6547,1.6543,1.6543,1.6521,1.6521,1.6565,1.6565,1.6564,0,1.5988,1.6001,1.6064,1.6082,1.6109,1.6137,1.6161,1.6212,1.6235,1.6289,1.63,1.634,1.6374,1.6431,1.6477,1.6518,1.6534,1.6524,1.654,1.6527,1.6534,1.6533,1.6535,1.6519,1.6518,1.6517,1.6517,0,1.5945,1.5968,1.5999,1.604,1.6067,1.6102,1.6139,1.6152,1.6212,1.6236,1.6274,1.6301,1.6355,1.6394,1.6442,1.6473,1.6506,1.6512,1.6514,1.6499,1.6482,1.6492,1.653,1.6511,1.6512,1.6512,1.6513,1.6513,1.5906,1.592,1.5967,1.6002,1.6036,1.607,1.609,1.613,1.6162,1.621,1.6239,1.6277,1.6325,1.6392,1.6423,1.6454,1.6466,1.6469,1.647,1.6469,1.6465,1.6478,1.6463,1.6463,1.6464,1.6464,1.6464,0,1.5864,1.5898,1.593,1.5981,1.601,1.6039,1.6083,1.6105,1.6137,1.6179,1.6213,1.6259,1.6299,1.6351,1.6395,1.6411,1.6427,1.6421,1.642,1.6427,1.6451,1.6445,1.6407,1.6407,1.6407,1.6407,1.6407,1.6407,1.5846,1.5872,1.5902,1.5948,1.5982,1.6019,1.6042,1.6075,1.6109,1.6158,1.6192,1.6226,1.6273,1.6322,1.6362,1.6376,1.6391,1.638,1.6399,1.642,1.6425,1.643,1.6424,1.6383,1.6383,1.6372,1.6372,1.6372]},{"header":{"parameterUnit":"m.s-1","parameterCategory":1,"la1":30.2991,"la2":30.254,"lo1":-89.0895,"lo2":-89.0444,"dy":0.0017,"dx":0.0017,"nx":28,"ny":28,"refTime":"2025-06-08T03:00:00:Z","depth":0,"parameterNumber":3,"parameterNumberName":"V-component_of_WINDS"},"data":[0,0,0,0,0,0,0,0,0,0,0,0,0,0,0,0,0,0,0,0,0,0,0,0,0,0,0,0,0,0,0,0,0,0,0,0,0,0,0,0,0,0,0,0,0,0,0,0,0,0,0,0,0,0,0,0,0,0,5.1159,5.116,0,5.1322,5.1323,5.1325,5.1379,5.1378,5.1377,5.1377,5.1532,5.1536,5.1541,0,0,0,0,0,0,0,0,0,0,0,0,0,5.0882,5.0886,5.1159,5.1161,5.1163,5.1321,5.1324,5.1326,5.1379,5.1378,5.1377,5.1376,5.153,5.1536,5.1541,0,0,0,0,0,0,0,0,0,0,0,0,0,5.1018,5.0888,5.1158,5.1209,5.1215,5.1321,5.1324,5.1326,5.1379,5.1378,5.1377,5.1376,5.1528,5.1535,5.1542,5.1606,0,0,5.1564,5.1567,0,0,0,0,0,0,0,0,5.1011,5.1029,5.1199,5.1205,5.1212,5.1329,5.1283,5.142,5.1379,5.1316,5.1377,5.1376,5.1464,5.1476,5.1509,5.1613,5.162,5.1564,5.1569,5.1572,5.1574,0,0,0,0,0,0,0,5.1001,5.1022,5.1223,5.1201,5.121,5.1219,5.1238,5.1309,5.1393,5.1322,5.1326,5.1345,5.1467,5.1502,5.1513,5.1622,5.1564,5.1571,5.1575,5.1578,5.1786,5.1788,0,0,0,0,0,0,5.0985,5.1014,5.1218,5.1228,5.1107,5.1225,5.1246,5.1292,5.1393,5.1408,5.1346,5.1347,5.149,5.1505,5.1519,5.16,5.1572,5.1578,5.1583,5.1785,5.1787,5.1788,0,0,0,0,0,0,5.0979,5.1003,5.1211,5.1122,5.1149,5.1231,5.1283,5.1296,5.1331,5.1412,5.1426,5.1366,5.149,5.1508,5.1585,5.1606,5.1582,5.1588,5.1784,5.1786,5.1787,5.1764,0,0,0,0,0,0,5.0971,5.1,5.1028,5.1122,5.1154,5.1278,5.1285,5.13,5.1344,5.1348,5.1434,5.1448,5.1491,5.1574,5.1592,5.1616,5.1594,5.1782,5.1784,5.1787,5.1763,5.1765,5.1766,0,0,0,0,0,5.096,5.1013,5.1029,5.1054,5.1191,5.1279,5.1297,5.1349,5.1346,5.1373,5.1425,5.1445,5.1601,5.1581,5.1602,5.1628,5.1781,5.1784,5.1787,5.1763,5.1765,5.1766,0,0,0,0,0,0,5.0914,5.1026,5.1046,5.1131,5.1196,5.1288,5.1324,5.1349,5.1413,5.1413,5.1471,5.149,5.1561,5.1602,5.1578,5.1695,5.1692,5.1699,5.1666,5.1669,5.167,5.1659,5.16,0,0,0,0,0,5.0915,5.0981,5.1073,5.1139,5.1171,5.1242,5.1282,5.1317,5.1384,5.1411,5.1468,5.153,5.1593,5.1633,5.1695,5.1769,5.1788,5.1797,5.1799,5.18,5.1805,5.1846,5.1851,5.1797,5.1797,5.1797,0,0,5.0915,5.0984,5.1021,5.1131,5.1186,5.1249,5.1264,5.1331,5.1377,5.142,5.1497,5.154,5.1612,5.1688,5.1724,5.1724,5.1824,5.1803,5.1803,5.1808,5.185,5.1855,5.1859,5.1799,5.1799,5.1799,0,0,5.0948,5.1008,5.107,5.1125,5.1208,5.1255,5.127,5.1359,5.1391,5.147,5.1503,5.1557,5.1664,5.1715,5.1754,5.1806,5.1827,5.1824,5.1833,5.1872,5.1876,5.188,5.1898,5.1904,5.1829,5.1829,5.1829,0,5.0937,5.1039,5.1097,5.1163,5.1209,5.1254,5.1315,5.1364,5.1462,5.1491,5.1491,5.1627,5.1679,5.1766,5.1779,5.181,5.1826,5.1815,5.1872,5.1876,5.1881,5.1899,5.1905,5.1829,5.1829,5.1829,5.1829,0,5.102,5.1089,5.1128,5.1227,5.1277,5.1339,5.1404,5.1447,5.1477,5.1522,5.16,5.1664,5.1741,5.1764,5.1792,5.1855,5.1853,5.1861,5.1859,5.1884,5.1902,5.1909,5.1828,5.1828,5.1828,5.1828,0,0,5.1029,5.116,5.1173,5.1218,5.1314,5.1367,5.1429,5.1508,5.1544,5.1609,5.1662,5.1752,5.1761,5.1805,5.1839,5.1874,5.191,5.1878,5.1881,5.1882,5.1983,5.1976,5.1983,5.1925,5.1926,5.1927,5.1977,0,5.1075,5.1195,5.1249,5.1343,5.1407,5.145,5.1505,5.1567,5.1611,5.1668,5.1714,5.1778,5.1785,5.1813,5.1849,5.1898,5.1931,5.1895,5.1971,5.1974,5.1953,5.1993,5.1986,5.203,5.1984,5.1985,5.1986,0,5.1144,5.1215,5.1316,5.1405,5.1433,5.1482,5.1558,5.1613,5.1683,5.1713,5.1763,5.1796,5.186,5.1853,5.1941,5.1916,5.195,5.1978,5.1981,5.199,5.1982,5.2003,5.2045,5.2051,5.1998,5.1997,5.1996,0,5.1141,5.126,5.1337,5.1373,5.1478,5.1511,5.1556,5.1626,5.1669,5.1734,5.1762,5.1832,5.187,5.1921,5.197,5.1961,5.2053,5.2051,5.2077,5.2076,5.2095,5.2093,5.2143,5.2116,5.2116,5.2116,5.2116,0,5.1186,5.1246,5.1337,5.1384,5.1451,5.1511,5.1575,5.1622,5.1684,5.1738,5.1777,5.1826,5.1888,5.1944,5.1982,5.2049,5.2065,5.2088,5.2098,5.2086,5.2083,5.2109,5.2107,5.2118,5.2117,5.2117,5.2116,0,5.1194,5.1257,5.1343,5.1436,5.1461,5.1507,5.1585,5.163,5.1676,5.1743,5.1762,5.1833,5.1901,5.1956,5.2042,5.2068,5.2138,5.2148,5.2116,5.2121,5.2144,5.2141,5.2213,5.2225,5.2189,5.219,5.219,0,5.1219,5.1267,5.1366,5.1408,5.1453,5.1518,5.1564,5.1623,5.1669,5.1753,5.1787,5.1858,5.1919,5.2024,5.2081,5.2147,5.216,5.218,5.217,5.2156,5.216,5.2157,5.2162,5.2181,5.2181,5.2181,5.2181,0,5.1257,5.1286,5.1353,5.1431,5.1486,5.1549,5.1612,5.1642,5.1712,5.176,5.1833,5.188,5.1971,5.204,5.2113,5.2154,5.2179,5.2184,5.2194,5.2182,5.2161,5.2173,5.2119,5.2182,5.2182,5.2182,5.2182,5.2182,5.1274,5.1319,5.1397,5.147,5.1525,5.1583,5.1631,5.1684,5.1747,5.1829,5.1858,5.1932,5.1999,5.21,5.2141,5.2197,5.2199,5.2213,5.2217,5.2219,5.2218,5.2152,5.221,5.221,5.221,5.221,5.221,0,5.1314,5.1367,5.1434,5.1523,5.158,5.1602,5.1673,5.1718,5.1784,5.1847,5.1907,5.1988,5.2056,5.2119,5.2188,5.2221,5.2234,5.2237,5.2235,5.2244,5.2212,5.2197,5.2226,5.2226,5.2226,5.2226,5.2226,5.2226,5.1342,5.142,5.1458,5.1561,5.1612,5.1689,5.1727,5.178,5.1831,5.1922,5.1981,5.2022,5.2084,5.2159,5.2221,5.2237,5.2261,5.2261,5.228,5.2249,5.2247,5.2244,5.2231,5.2266,5.2266,5.2308,5.2308,5.2309]}]]